Location: G�kdere
(37.0328°N, 30.9000°E)
Time: 05:46:08
(UTC+00:00)

Okean-O - Pass Details

Date: 03 March 2021
Orbit: 639 x 640 km, 98.2° (Epoch: 20 April)

Event Time Altitude Azimuth Distance (km) Brightness Sun altitude
Rises 16:41:19 0° 163° (SSE) 2,929 5.9 -10.5°
Reaches altitude 10° 16:43:31 10° 162° (SSE) 2,024 5.0 -11.0°
Maximum altitude 16:47:55 80° 77° (ENE) 655 2.5 -11.8°
Drops below altitude 10° 16:52:22 10° 350° (N) 2,039 5.4 -12.7°
Sets 16:54:34 0° 349° (N) 2,952 6.2 -13.2°
